Regional Weather Roundup
Issued by NWS

Home | Current Version | Previous Version | Graphics & Text | Print | Product List | Glossary On
Versions: 1 2 3 4 5 6 7 8 9 10 11 12 13 14 15 16 17 18 19 20 21 22 23 24 25 26 27 28 29 30 31 32 33 34 35 36 37 38 39 40 41 42 43 44 45 46 47 48 49 50
000
ASUS43 KLSX 210907
RWRMO

WEATHER SUMMARY FOR MISSOURI
NATIONAL WEATHER SERVICE SPRINGFIELD MO
400 AM CDT THU SEP 21 2017

NOTE: "FAIR" INDICATES FEW OR NO CLOUDS BELOW 12,000 FEET WITH NO
       SIGNIFICANT WEATHER AND/OR OBSTRUCTIONS TO VISIBILITY.
       CURRENT SKY AND/OR WEATHER CONDITIONS ARE NOT AVAILABLE FOR
       CHILLICOTHE AND FARMINGTON.

MOZ001>031-035>038-043-044-053-054-211000-
...NORTHERN AND WESTERN MISSOURI...

CITY           SKY/WX    TMP DP  RH WIND       PRES   REMARKS
KANSAS CTY INT PTCLDY    78  73  84 S13       29.87F
KANSAS C DTWN  CLEAR     80  73  79 S10       29.86F
LEE`S SUMMIT   CLEAR     78  72  81 S13       29.89F
ST JOSEPH      CLEAR     73  72  96 CALM      29.85F
CHILLICOTHE      N/A     77  73  87 S6        29.89R
KIRKSVILLE     CLEAR     75  70  84 S9        29.92S

$$
MOZ066>068-077>081-088>096-101>105-211000-
...SOUTHWEST MISSOURI...

CITY           SKY/WX    TMP DP  RH WIND       PRES   REMARKS
SPRINGFIELD    CLEAR     73  70  90 SE8       29.95F
JOPLIN         CLEAR     76  72  87 S7        29.92S
BRANSON        CLEAR     70  68  94 CALM      29.98F

$$
MOZ032>034-039>042-045>050-055>058-069>072-211000-
...CENTRAL MISSOURI...

CITY           SKY/WX    TMP DP  RH WIND       PRES   REMARKS
COLUMBIA       PTCLDY    75  71  87 S8        29.96R
JEFFERSON CITY CLEAR     76  70  82 E3        29.95R
ROLLA          CLEAR     72  70  93 S7        29.99S
SEDALIA        CLEAR     75  72  90 S8        29.93F
WHITEMAN AFB   PTCLDY    75  75 100 SW8       29.90S
WARRENSBURG    CLEAR     73  68  83 S7        29.90S
OSAGE BEACH    CLEAR     72  70  93 SE5       29.96F

$$
MOZ051-052-059>065-211000-
...EAST CENTRAL MISSOURI...

CITY           SKY/WX    TMP DP  RH WIND       PRES   REMARKS
ST LOUIS INTL  CLEAR     78  70  76 S3        29.98R
ST CHARLES     CLEAR     70  68  93 E7        29.97R

$$
MOZ072>076-082>087-097>100-106>115-211000-
...SOUTH CENTRAL AND SOUTHEAST MISSOURI...

CITY           SKY/WX    TMP DP  RH WIND       PRES   REMARKS
CAPE GIRARDEAU CLEAR     72  69  90 SE6       30.00R
FARMINGTON     CLEAR     71  68  90 S5        30.02R
POPLAR BLUFF   CLEAR     67  67 100 CALM      29.98F FOG
WEST PLAINS    CLEAR     73  70  90 S3        30.01F

$$



USA.gov is the U.S. government's official web portal to all federal, state and local government web resources and services.